EW4052 Weather Reports


Display with metric or nautical units.
time (UTC)temp
F
wind
direction
speed
MPH
gust
MPH
rain 1hr
in
rain 24hr
in
rain mn
in
humidity
%
barometer
mb
20260510094523 39 271 0.0 0.0 0.00 0.00 0.00 58 1017.7
20260510093020 40 271 0.0 0.0 0.00 0.00 0.00 59 1017.5
20260510091525 40 271 0.0 0.0 0.00 0.00 0.00 58 1017.5
20260510090017 40 271 0.0 0.0 0.00 0.00 0.00 57 1017.1
20260510084534 41 271 0.0 0.0 0.00 0.00 0.00 58 1017.1
20260510083012 41 271 0.0 0.0 0.00 0.00 0.00 57 1016.9
20260510081516 43 271 0.0 0.0 0.00 0.00 0.00 55 1016.8
20260510080004 46 273 2.0 4.0 0.00 0.00 0.00 54 1016.5
20260510074502 47 274 3.0 6.0 0.00 0.00 0.00 53 1016.4
20260510073059 46 275 3.0 6.0 0.00 0.00 0.00 54 1016.1
20260510071557 47 268 3.0 6.0 0.00 0.00 0.00 52 1016.0
20260510070055 47 265 3.0 6.0 0.00 0.00 0.00 52 1016.1
20260510064553 47 265 3.0 6.0 0.00 0.00 0.00 52 1016.1
20260510063051 48 267 3.0 6.0 0.00 0.00 0.00 51 1016.0
20260510061601 48 271 4.0 6.0 0.00 0.00 0.00 49 1015.8
20260510060048 49 275 4.0 7.0 0.00 0.00 0.00 50 1015.7
20260510054543 49 261 4.0 7.0 0.00 0.00 0.00 50 1015.6
20260510053044 49 260 3.0 6.0 0.00 0.00 0.00 49 1015.4
20260510051541 49 263 0.0 6.0 0.00 0.00 0.00 47 1015.3
20260510050034 49 263 2.0 8.0 0.00 0.00 0.00 47 1015.0
20260510044531 49 265 5.0 10.0 0.00 0.00 0.00 46 1014.9
20260510043030 50 273 5.0 10.0 0.00 0.00 0.00 47 1014.7
20260510041534 50 276 8.0 10.0 0.00 0.00 0.00 46 1014.6
20260510040027 51 267 6.0 10.0 0.00 0.00 0.00 47 1014.4
20260510034527 51 268 7.0 11.0 0.00 0.00 0.00 45 1014.1
20260510033023 51 271 5.0 9.0 0.00 0.00 0.00 44 1014.0
20260510031521 52 272 3.0 7.0 0.00 0.00 0.00 44 1013.8
20260510030021 52 267 3.0 8.0 0.00 0.00 0.00 43 1013.6
20260510024526 53 266 3.0 8.0 0.00 0.00 0.00 44 1013.5
20260510023014 54 265 5.0 9.0 0.00 0.00 0.00 41 1013.2
20260510021514 54 270 6.0 11.0 0.00 0.00 0.00 40 1012.8
20260510020011 55 268 5.0 10.0 0.00 0.00 0.00 41 1012.4
20260510014506 56 270 7.0 11.0 0.00 0.00 0.00 37 1012.0
20260510013003 57 298 7.0 14.0 0.00 0.00 0.00 39 1011.5
20260510011601 57 282 9.0 13.0 0.00 0.00 0.00 37 1011.2
20260510010058 58 281 10.0 14.0 0.00 0.00 0.00 35 1011.0
20260510004557 59 273 12.0 16.0 0.00 0.00 0.00 36 1010.7
20260510003055 60 268 13.0 19.0 0.00 0.00 0.00 35 1010.4
20260510001554 61 306 12.0 18.0 0.00 0.00 0.00 34 1010.2
20260510000051 61 296 12.0 21.0 0.00 0.00 0.00 34 1009.9
20260509234548 62 271 10.0 20.0 0.00 0.00 0.00 35 1009.8
20260509233047 62 293 12.0 18.0 0.00 0.00 0.00 33 1009.6
20260509231554 62 288 13.0 19.0 0.00 0.00 0.00 33 1009.4
20260509230044 62 276 14.0 26.0 0.00 0.00 0.00 35 1009.4
20260509224543 63 286 14.0 20.0 0.00 0.00 0.00 36 1009.2
20260509223042 63 269 14.0 23.0 0.00 0.00 0.00 33 1009.0
20260509221539 63 294 14.0 23.0 0.00 0.00 0.00 36 1008.8
20260509220040 64 287 10.0 19.0 0.00 0.00 0.00 33 1008.6
20260509214537 64 260 15.0 21.0 0.00 0.00 0.00 32 1008.5
20260509213036 64 274 16.0 24.0 0.00 0.00 0.00 33 1008.3
20260509211539 65 284 14.0 23.0 0.00 0.00 0.00 34 1008.3
20260509210038 64 279 16.0 22.0 0.00 0.00 0.00 34 1008.1
20260509204531 64 275 13.0 23.0 0.00 0.00 0.00 36 1008.0
20260509203031 64 261 15.0 20.0 0.00 0.00 0.00 35 1007.9
20260509201529 64 269 15.0 24.0 0.00 0.00 0.00 35 1007.8
20260509200026 64 292 14.0 25.0 0.00 0.00 0.00 38 1007.7
20260509194528 64 317 15.0 25.0 0.00 0.00 0.00 38 1007.5
20260509193023 64 281 14.0 24.0 0.00 0.00 0.00 37 1007.5
20260509191523 64 247 13.0 22.0 0.00 0.00 0.00 39 1007.5
20260509190020 63 291 13.0 22.0 0.00 0.00 0.00 43 1007.2
20260509184531 63 262 18.0 24.0 0.00 0.00 0.00 42 1007.1
20260509183018 63 306 12.0 23.0 0.00 0.00 0.00 43 1007.0
20260509181517 63 250 11.0 18.0 0.00 0.00 0.00 46 1007.0
20260509180015 62 284 8.0 20.0 0.00 0.00 0.00 47 1006.7
20260509174513 62 272 15.0 23.0 0.00 0.00 0.00 48 1006.7
20260509173010 62 279 14.0 23.0 0.00 0.00 0.00 48 1006.6
20260509171511 61 284 9.0 23.0 0.00 0.00 0.00 53 1006.7
20260509170007 60 266 16.0 24.0 0.00 0.00 0.00 54 1006.6
20260509164503 60 266 18.0 22.0 0.00 0.00 0.00 57 1006.4
20260509163001 59 242 15.0 24.0 0.00 0.00 0.00 57 1006.3
20260509161602 59 273 13.0 19.0 0.00 0.00 0.00 62 1006.2
20260509160059 58 259 16.0 23.0 0.00 0.00 0.00 62 1006.0
20260509154558 58 285 16.0 20.0 0.00 0.00 0.00 63 1005.8
20260509153058 57 270 13.0 22.0 0.00 0.00 0.00 65 1005.8
20260509151655 57 271 13.0 23.0 0.00 0.00 0.00 65 1005.7
20260509150056 57 248 16.0 23.0 0.00 0.00 0.00 64 1005.5
20260509144555 56 242 16.0 25.0 0.00 0.00 0.00 66 1005.7
20260509143055 56 253 14.0 24.0 0.00 0.00 0.00 65 1005.5
20260509141600 56 251 14.0 21.0 0.00 0.00 0.00 63 1005.2
20260509140059 56 266 10.0 22.0 0.00 0.00 0.00 61 1005.0
20260509134548 54 237 6.0 8.0 0.00 0.00 0.00 59 1005.2
20260509133047 54 246 0.0 4.0 0.00 0.00 0.00 57 1004.7
20260509131546 54 267 2.0 7.0 0.00 0.00 0.00 58 1004.9
20260509130048 53 277 5.0 10.0 0.00 0.00 0.00 57 1004.9
20260509124547 53 258 6.0 14.0 0.00 0.00 0.00 57 1004.9
20260509123051 52 244 7.0 15.0 0.00 0.00 0.00 56 1004.5
20260509121540 52 248 9.0 15.0 0.00 0.00 0.00 60 1004.6
20260509120138 51 220 9.0 14.0 0.00 0.00 0.00 58 1004.1
20260509114540 49 236 12.0 20.0 0.00 0.00 0.00 61 1004.1
20260509113042 47 239 4.0 11.0 0.00 0.00 0.00 57 1003.6
20260509111544 45 229 0.0 8.0 0.00 0.00 0.00 58 1002.4
20260509110032 45 224 0.0 7.0 0.00 0.00 0.00 59 1002.0
20260509104531 45 182 0.0 3.0 0.00 0.00 0.00 59 1002.1
20260509103029 45 204 0.0 0.0 0.00 0.00 0.00 57 1002.2
20260509101530 46 203 0.0 2.0 0.00 0.00 0.00 56 1002.3
20260509100024 48 199 0.0 8.0 0.00 0.00 0.00 53 1002.4